Terminal Aerodrome Forecast
Issued by NWS Blacksburg, VA

Home | Current Version | Previous Version | Text Only | Print | Product List | Glossary On
Versions: 1 2 3 4 5 6 7 8 9 10 11 12 13 14 15 16 17 18 19 20 21 22 23 24 25 26 27 28 29 30
000
FTUS41 KRNK 041127
TAFLYH
TAF
KLYH 041127Z 0412/0512 30003KT P6SM SCT015 OVC070
     FM041900 24006KT P6SM VCSH BKN050
     FM050100 25004KT P6SM BKN050
     FM051000 30003KT 4SM -SHRA BR SCT020 OVC060=

USA.gov is the U.S. government's official web portal to all federal, state and local government web resources and services.